Tracking 30310 objects as of 25-Apr-2025
HD Live streaming from Space Station
objects crossing your sky now

DELTA 1 R/B

Track DELTA 1 R/B now!
10-day predictions


NORAD ID: 979
Int'l Code: 1965-004B
Perigee: 708.5 km
Apogee: 2,531.2 km
Inclination: 96.4 °
Period: 118.5 minutes
Semi major axis: 7990 km
RCS: 0.4861 m2 (medium)
Launch date: January 22, 1965
Source: United States (US)
Launch site: AIR FORCE EASTERN TEST RANGE (AFETR)

Note: This is a ROCKET BODY
Your satellite tracking list
Your tracking list is empty




NASA's NSSDC Master Catalog

Two Line Element Set (TLE):
1 00979U 65004B   25114.63401078  .00000303  00000-0  37881-3 0  9998
2 00979  96.4115 167.6637 1140549  93.4290 279.7643 12.15383046664715
Source of the keplerian elements: AFSPC